Theta_e
319 319 319 319 319 319 319 318 318 318 318 318 318 318 318 318 317 315 310 319 322 327 319 313 315 309 310 308 310 310 299 296 300 302 305 310 309 313 314 312 314 316 316 322 344
318 319 319 318 318 319 318 318 318 317 318 318 318 317 317 318 312 310 322 331 332 329 314 310 308 308 306 307 308 304 300 299 304 306 306 309 309 310 309 310 311 313 318 325 336
317 318 318 318 318 318 318 318 317 317 317 317 317 317 318 316 309 314 333 334 331 324 315 311 311 308 303 306 305 305 301 305 306 307 308 307 307 310 307 306 310 310 314 317 322
319 318 318 318 318 318 318 317 317 316 316 317 316 316 317 313 301 318 332 332 330 319 314 309 309 304 302 301 305 300 305 306 306 308 307 305 307 306 307 307 312 312 314 315 317
318 318 318 318 318 318 317 317 316 316 317 316 316 316 313 306 307 319 328 329 322 317 310 308 307 305 300 302 303 301 303 306 308 307 307 307 305 304 305 309 311 312 312 313 315
318 318 317 317 317 317 317 316 316 316 316 315 315 316 309 300 315 318 322 323 319 314 311 309 308 308 304 303 302 305 305 305 306 306 307 304 304 305 306 310 309 310 310 311 313
317 316 315 316 315 316 316 316 316 316 316 316 316 315 307 306 317 320 320 320 319 314 309 311 311 306 306 303 307 306 302 304 305 305 304 306 301 302 308 310 308 309 311 311 312
316 314 314 314 315 315 316 316 315 316 316 316 317 313 304 317 320 318 319 317 320 317 314 312 311 308 307 308 305 301 302 297 303 304 305 304 297 305 310 310 309 310 310 311 312
315 315 315 314 315 315 315 314 315 316 317 317 313 309 304 321 314 317 318 313 317 317 316 316 312 306 307 301 298 300 294 296 299 305 305 303 299 306 310 311 310 311 311 311 312
315 314 313 314 314 314 313 313 315 315 315 315 313 303 308 308 315 317 319 315 314 313 312 309 307 302 302 298 291 294 295 297 298 304 305 303 302 306 309 309 310 312 312 312 312
315 314 313 313 313 312 311 310 309 305 309 307 308 307 311 316 317 313 316 312 314 310 303 307 299 296 299 300 300 299 299 298 302 306 303 302 303 305 309 309 310 311 313 314 315
315 314 314 313 313 312 310 306 308 313 302 309 310 311 315 317 309 312 315 307 308 302 305 302 297 302 303 302 300 299 297 298 303 305 304 303 302 306 308 309 311 311 313 315 316
314 313 313 313 312 310 313 313 316 314 303 305 310 310 312 314 309 309 311 308 306 303 302 298 300 304 302 300 298 298 296 298 299 303 304 302 300 303 307 310 311 312 313 315 315
312 312 312 311 306 310 305 313 316 319 299 301 307 311 314 314 307 315 313 309 305 302 302 300 304 302 300 298 300 295 300 300 300 299 294 303 291 302 305 307 309 310 312 314 317
310 310 310 310 304 302 308 315 316 316 286 306 308 317 314 309 309 309 315 309 303 302 303 299 300 300 298 299 301 297 302 300 300 298 298 298 295 300 306 304 306 310 312 315 316
310 310 310 308 308 309 313 315 313 296 287 301 308 305 306 308 307 308 309 310 311 304 304 302 307 303 302 303 301 303 301 301 301 298 292 296 296 296 300 305 307 310 312 315 315
309 309 308 310 303 310 313 309 295 289 301 300 301 304 301 301 303 304 302 299 299 294 295 300 300 304 305 300 302 301 298 290 289 290 290 298 296 299 306 308 309 310 313 315 316
307 306 309 312 314 313 310 300 288 296 298 304 305 302 297 301 302 301 301 295 300 300 297 294 292 301 305 301 299 299 298 291 286 287 290 298 294 298 308 310 312 312 313 314 315
305 311 311 314 316 315 303 291 292 296 300 300 302 299 298 301 300 300 299 297 298 300 294 293 294 303 303 304 303 298 295 301 295 296 292 295 300 305 308 309 310 310 312 315 317
304 308 311 320 321 312 299 293 297 302 303 302 294 300 296 298 298 299 297 302 299 302 303 298 294 301 303 305 304 301 303 294 295 287 286 293 295 296 304 306 308 309 312 315 316
306 303 316 323 319 305 295 296 300 304 304 300 298 299 299 297 296 293 297 302 304 302 303 300 298 299 302 300 297 298 297 298 298 296 290 289 292 305 305 309 309 308 313 314 314
304 298 316 319 302 303 298 301 302 303 306 303 303 303 299 296 295 293 294 299 305 305 300 303 299 292 297 304 305 303 298 298 294 292 296 295 292 308 309 311 311 308 310 314 316
298 301 312 313 295 297 301 300 302 300 300 300 301 304 303 298 294 297 296 302 304 305 303 305 299 291 294 299 303 301 301 301 302 301 295 292 295 308 310 311 311 309 311 313 314
300 296 304 310 306 301 298 297 297 303 302 301 300 305 299 296 300 297 297 300 304 305 307 308 302 297 291 295 300 298 300 302 299 296 294 294 296 302 304 305 306 312 313 313 316
301 299 300 294 297 298 298 296 294 296 302 301 295 303 300 296 298 297 300 299 302 305 305 305 295 297 299 299 299 298 297 300 297 297 293 296 298 302 301 303 305 309 308 308 308
299 297 300 297 299 298 297 297 296 297 298 296 292 302 302 297 299 294 299 300 297 299 302 305 295 298 294 300 297 294 296 299 300 300 300 301 299 306 306 306 306 307 308 308 309
303 304 299 295 296 296 295 296 296 297 300 299 295 300 300 299 302 304 306 305 304 300 300 300 298 294 290 297 296 290 293 297 299 302 301 296 301 306 305 305 305 306 307 307 309
Wind_Speed
13 13 13 13 12 13 14 14 13 13 13 14 14 16 18 19 20 21 23 18 11 11 5 13 13 15 17 19 19 17 13 12 22 22 17 17 18 17 5 8 5 14 15 13 11
14 14 14 14 14 14 14 14 14 14 13 13 13 15 16 18 22 26 22 20 14 14 10 16 17 17 17 17 18 19 14 22 19 20 19 14 15 8 6 7 10 13 12 7 9
14 14 14 14 15 13 13 14 15 15 15 14 13 13 15 18 19 5 7 16 19 16 18 17 19 18 21 19 21 23 21 19 19 22 15 12 14 13 9 13 13 14 13 18 12
14 14 14 14 15 14 13 14 15 17 16 14 15 15 14 12 9 8 8 16 14 15 16 20 21 21 21 23 22 25 24 22 22 24 15 10 13 16 17 16 16 17 17 19 17
13 14 15 15 15 14 14 15 16 15 15 15 15 14 12 10 23 17 8 14 14 15 20 22 23 21 23 22 23 24 23 22 20 18 20 14 17 18 19 17 17 17 18 20 20
12 13 15 16 17 16 15 15 15 14 14 16 16 14 12 21 19 23 17 11 13 17 20 23 18 18 19 23 23 20 21 19 21 20 16 19 20 20 21 19 19 19 20 19 20
12 13 17 17 18 18 17 18 17 16 17 16 17 11 13 31 17 20 12 13 17 19 20 23 22 20 19 19 18 20 18 17 16 20 25 18 23 24 20 20 21 20 17 18 20
14 17 19 19 17 19 19 19 19 19 20 19 15 10 13 16 17 23 20 16 17 19 20 18 19 20 18 14 20 14 20 19 20 23 21 19 22 19 19 19 21 20 17 17 19
16 15 16 19 19 20 20 21 24 24 20 14 8 8 14 6 15 24 20 20 19 20 17 15 15 17 15 17 15 18 17 24 23 24 23 25 21 16 21 9 9 10 12 14 15
16 17 17 19 22 20 20 26 24 12 8 8 9 6 11 13 16 15 21 21 19 18 19 18 12 16 18 18 19 16 21 21 22 19 12 15 14 16 16 14 15 13 11 11 13
15 16 17 19 23 22 19 12 8 6 10 12 13 13 19 8 4 9 18 19 20 22 22 21 17 22 25 25 19 21 22 20 15 19 16 15 17 17 14 15 12 12 10 10 11
17 17 19 20 23 24 17 8 16 19 22 23 32 30 27 23 14 13 19 20 24 22 23 20 25 24 23 24 24 22 24 19 15 16 15 12 15 15 16 13 12 11 6 8 11
16 17 20 22 26 19 12 16 18 21 17 29 31 27 27 25 24 15 21 24 22 25 27 26 18 26 25 23 24 24 22 19 16 7 10 13 13 16 15 12 16 5 6 8 4
18 19 18 21 18 12 16 19 11 9 9 17 14 17 23 19 25 21 19 23 19 24 25 23 27 25 24 26 23 22 19 19 14 14 14 16 14 17 19 19 11 9 6 4 7
20 21 20 11 16 11 14 17 13 6 9 9 9 8 11 21 4 23 21 24 21 18 20 23 22 21 22 26 23 18 17 18 17 14 13 17 11 13 11 15 9 12 6 8 3
23 22 19 14 14 19 16 12 11 7 14 8 6 6 13 16 11 9 23 23 20 20 15 23 20 19 19 21 17 18 18 18 18 15 16 19 17 12 9 12 14 14 13 10 5
27 27 19 14 10 13 12 8 8 12 13 2 11 4 13 2 5 3 15 22 20 16 17 19 21 18 19 15 20 18 15 10 11 13 14 19 18 13 12 8 13 15 15 11 3
30 34 14 12 15 16 9 11 14 15 24 8 5 11 7 3 9 12 20 18 25 24 15 18 20 29 21 22 18 19 16 10 15 14 14 20 18 17 18 10 14 13 12 8 5
35 11 12 13 16 9 8 15 16 21 14 14 19 9 12 12 7 10 16 22 23 23 19 10 17 21 21 16 22 19 20 20 17 12 7 8 13 13 14 12 14 13 10 10 8
12 13 12 7 5 7 10 22 24 26 24 8 19 3 4 2 6 11 7 15 16 19 13 3 7 13 13 14 16 15 14 14 9 13 15 11 6 5 8 10 12 10 11 10 6
8 8 7 1 6 6 12 19 24 26 20 13 12 7 8 4 2 5 5 15 11 23 21 17 4 11 16 17 20 14 15 13 10 10 10 9 2 8 4 10 8 10 10 10 5
8 8 8 4 5 7 14 24 26 17 22 19 20 6 6 6 5 5 7 2 13 9 25 16 4 6 10 11 4 13 19 19 9 15 6 4 2 11 12 7 13 13 18 7 9
8 12 11 4 6 10 13 22 23 0 9 7 14 11 6 8 5 9 7 4 15 7 10 5 10 5 8 7 6 14 15 11 5 4 6 4 5 2 12 11 10 17 12 9 7
8 7 6 2 12 12 17 17 20 5 9 10 22 15 8 2 6 7 8 9 13 5 1 2 5 5 4 2 3 8 5 9 10 4 3 8 4 0 10 16 18 19 6 5 7
5 8 13 12 15 21 18 19 22 20 10 10 12 11 8 6 14 10 10 9 5 7 2 0 3 14 5 8 3 6 6 9 11 9 6 9 10 15 9 2 12 17 8 6 7
5 7 12 15 18 22 20 16 12 16 7 11 10 20 9 4 5 8 10 7 6 7 6 14 7 12 4 10 7 4 6 6 9 14 8 9 6 13 20 21 9 7 8 10 10
10 11 8 12 15 18 11 16 15 17 6 10 24 23 13 10 14 6 10 6 8 6 5 1 2 1 3 11 12 11 14 12 14 19 12 9 10 10 11 8 7 6 8 7 9
Wind_Direction
340 336 334 332 333 333 330 329 329 325 323 319 317 317 316 315 305 277 256 243 221 175 199 275 233 217 225 242 230 216 241 258 254 258 266 270 271 268 24 312 274 260 264 257 111
338 335 333 334 333 331 329 326 322 320 314 312 312 313 316 316 300 278 253 235 181 155 225 225 232 211 217 221 228 227 228 239 254 279 274 305 332 326 299 234 246 274 271 235 138
335 331 328 326 326 325 319 318 318 316 315 313 310 312 313 311 293 266 1 197 160 167 228 230 236 212 224 226 221 224 238 251 239 244 293 309 310 320 303 268 265 264 250 252 241
322 321 321 319 319 315 312 314 313 313 311 311 315 312 312 299 268 97 136 142 168 199 223 231 236 218 224 228 230 232 232 241 260 277 280 276 280 272 274 267 271 273 279 282 279
322 322 321 319 317 313 310 309 307 306 304 307 308 307 312 247 247 260 155 162 174 206 215 216 221 219 219 231 229 233 242 242 256 257 278 277 261 265 263 262 266 266 266 271 275
311 321 325 323 319 314 308 302 294 288 288 295 297 295 267 266 259 259 196 171 204 200 214 220 224 223 230 236 236 234 240 249 252 257 247 251 257 256 254 254 251 250 255 253 265
326 331 326 323 321 315 308 302 298 294 292 290 290 266 259 241 284 317 218 198 226 201 210 222 231 221 223 245 250 266 252 237 240 247 252 249 254 252 259 251 250 247 230 247 257
330 328 326 323 319 314 307 300 295 290 288 282 275 249 251 256 248 256 259 241 209 221 230 223 231 245 247 238 249 258 243 249 243 239 237 236 253 252 247 226 228 229 234 235 232
326 322 319 318 313 309 305 300 289 287 281 265 243 220 261 225 223 238 240 233 208 225 222 244 231 237 232 242 240 225 238 235 247 242 217 209 239 248 250 248 273 257 238 227 233
324 318 316 311 309 307 307 294 276 279 229 218 260 199 249 252 236 202 215 229 219 209 213 223 228 223 228 216 221 222 224 242 250 234 193 226 214 253 269 247 248 243 241 230 232
309 308 309 306 304 306 316 316 180 179 219 214 205 231 283 288 226 201 196 208 222 204 208 205 219 214 216 225 226 246 241 225 241 235 177 221 246 230 242 254 258 241 238 218 241
304 312 310 309 304 300 289 253 273 322 294 259 238 249 246 257 270 205 174 203 209 204 208 202 224 223 219 221 231 237 253 252 247 236 187 202 240 244 246 249 245 254 304 225 219
300 308 310 310 305 293 238 261 277 279 271 278 258 243 228 225 238 247 174 204 199 207 204 214 213 224 227 221 226 225 235 245 253 237 268 263 255 253 261 245 252 202 242 277 305
316 307 308 319 284 313 290 274 311 306 281 267 217 225 218 189 230 225 182 201 220 212 219 217 237 201 221 232 221 228 222 245 234 240 241 200 249 247 225 227 201 211 200 41 14
313 308 305 304 296 276 292 325 325 293 281 125 144 103 167 186 100 196 200 198 220 211 209 226 221 234 221 226 227 231 219 221 243 243 248 253 255 264 222 180 202 188 146 101 9
308 303 301 286 235 250 266 276 285 240 248 216 99 196 192 204 239 310 181 205 207 224 234 225 251 227 218 237 222 219 233 221 215 223 229 232 243 245 232 206 189 180 138 105 70
309 302 288 270 252 261 301 217 234 239 271 198 74 6 20 306 168 52 214 203 208 210 223 229 227 244 247 235 208 227 217 216 221 225 239 224 224 235 240 240 192 148 118 120 119
312 304 268 233 223 240 259 217 244 259 239 29 145 131 167 188 231 213 232 205 221 227 212 208 221 216 205 210 210 215 216 220 215 216 235 221 222 215 227 155 109 97 90 112 96
314 300 286 235 207 218 224 227 233 242 275 340 316 159 214 157 183 202 254 217 202 234 240 238 266 200 217 210 217 198 211 233 251 277 254 256 249 80 100 120 134 142 149 106 95
309 295 253 112 147 203 227 245 260 255 292 265 274 65 280 177 207 209 202 238 215 228 220 302 242 223 222 239 246 248 215 227 250 241 245 250 210 102 184 152 161 157 133 117 127
272 286 88 175 158 221 236 245 252 254 301 294 289 281 37 38 152 348 190 273 281 212 197 220 90 281 229 221 216 201 218 243 246 274 253 215 57 352 18 49 46 15 138 135 129
300 288 124 193 244 245 258 261 275 315 315 320 317 138 124 135 271 186 249 341 304 331 207 177 168 244 236 224 316 289 218 213 219 249 251 42 231 327 348 79 70 47 321 131 96
294 283 270 170 253 278 292 283 289 171 316 312 302 357 147 167 206 212 221 306 296 315 227 233 167 197 219 295 243 251 231 249 320 45 248 237 143 328 342 348 130 142 218 230 156
283 299 44 247 263 285 304 303 312 1 299 265 309 154 137 121 182 233 171 188 254 16 340 69 244 237 164 72 148 268 346 230 200 187 179 215 182 12 9 354 349 281 181 100 133
259 325 341 312 323 319 298 290 286 323 9 332 335 205 171 205 197 183 155 150 190 290 238 300 42 302 119 149 228 259 301 308 271 224 154 254 235 139 105 9 221 276 358 340 335
288 338 337 302 293 300 300 324 332 333 346 314 298 270 136 110 39 307 160 166 157 265 279 196 195 240 139 221 167 217 267 265 291 293 230 190 235 162 177 188 221 27 4 20 0
333 328 319 293 304 303 326 321 307 310 31 37 307 286 142 145 232 220 84 60 148 131 312 235 306 280 274 193 156 232 210 218 199 223 222 205 97 137 126 105 67 48 53 44 28